Date String (YYYY-MM-DD hh:mm:ss) UTC,Instrument flags,absolute air pressure of the measurement (hPa),sample flow rate (lpm),inlet stack bypass flow (lpm),air temperature of the measurement (°C),ambient temperature measured by the external sensor (°C),aerosol sample conditioner tube jacket temperature (°C),OPC LED temperature (°C),internal box temperature (°C),relative humidity of the measurement (%),span deviation,mass concentration of particles derived from Lorenz-Mie calculation of OPC scattering (μg/m³),mass concentration of particles derived from Lorenz-Mie calculation of OPC scattering (μg/m³),mass concentration of particles derived from Lorenz-Mie calculation of OPC scattering (μg/m³)
DateTimeUTC,F1_M11,P_M11,Q1_M11,Q2_M11,T1_M11,T2_M11,T3_M11,T4_M11,T5_M11,U1_M11,ZSPAN_M11,X0_M11,X2_M11,X1_M11
2023-10-08 07:00:00,SystemResetWarning,0835.0,5.00,000.00,028.9,027.4,000.0,037.4,030.5,13.4,0000.0,0005.99,0003.44,0003.16
2023-10-08 07:01:00,SystemResetWarning,0835.0,5.00,000.00,028.9,027.4,000.0,037.4,030.5,13.3,0000.0,0005.49,0003.44,0003.16
2023-10-08 07:02:00,SystemResetWarning,0835.0,5.00,000.00,028.9,027.4,000.0,037.4,030.5,13.4,0000.0,0005.64,0003.46,0003.17
2023-10-08 07:03:00,SystemResetWarning,0835.0,5.00,000.00,028.9,027.4,000.0,037.4,030.5,13.3,0000.0,0006.12,0003.48,0003.17
2023-10-08 07:04:00,SystemResetWarning,0835.0,5.00,000.00,028.9,027.4,000.0,037.4,030.5,13.3,0000.0,0006.26,0003.47,0003.18
2023-10-08 07:05:00,SystemResetWarning,0835.0,5.00,000.00,028.9,027.3,000.0,037.4,030.5,13.3,0000.0,0006.59,0003.46,0003.18
2023-10-08 07:06:00,SystemResetWarning,0835.0,5.00,000.00,028.9,027.3,000.0,037.4,030.5,13.3,0000.0,0007.19,0003.46,0003.18
2023-10-08 07:07:00,SystemResetWarning,0835.0,5.00,000.00,028.9,027.3,000.0,037.4,030.4,13.3,0000.0,0007.39,0003.47,0003.18
2023-10-08 07:08:00,SystemResetWarning,0835.0,5.00,000.00,028.9,027.3,000.0,037.4,030.5,13.3,0000.0,0007.85,0003.45,0003.17
2023-10-08 07:09:00,SystemResetWarning,0834.9,5.00,000.00,028.9,027.3,000.0,037.4,030.5,13.3,0000.0,0007.75,0003.43,0003.16
2023-10-08 07:10:00,SystemResetWarning,0835.0,5.00,000.00,028.9,027.3,000.0,037.4,030.4,13.3,0000.0,0007.80,0003.45,0003.16
2023-10-08 07:11:00,SystemResetWarning,0834.9,5.01,000.00,028.9,027.3,000.0,037.4,030.4,13.3,0000.0,0007.86,0003.48,0003.16
2023-10-08 07:12:00,SystemResetWarning,0834.9,5.00,000.00,028.9,027.3,000.0,037.4,030.4,13.3,0000.0,0007.93,0003.50,0003.16
2023-10-08 07:13:00,SystemResetWarning,0834.9,5.00,000.00,028.9,027.3,000.0,037.3,030.4,13.3,0000.0,0007.89,0003.47,0003.15
2023-10-08 07:14:00,SystemResetWarning,0834.9,5.00,000.00,028.9,027.3,000.0,037.3,030.4,13.3,0000.0,0008.23,0003.49,0003.15
2023-10-08 07:15:00,SystemResetWarning,0834.9,5.00,000.00,028.9,027.3,000.0,037.4,030.4,13.3,0000.0,0008.52,0003.47,0003.15
2023-10-08 07:16:00,SystemResetWarning,0835.0,5.00,000.00,028.9,027.3,000.0,037.3,030.4,13.4,0000.0,0008.37,0003.47,0003.14
2023-10-08 07:17:00,SystemResetWarning,0834.9,5.00,000.00,028.8,027.3,000.0,037.3,030.4,13.4,0000.0,0008.15,0003.47,0003.15
2023-10-08 07:18:00,SystemResetWarning,0835.0,5.00,000.00,028.8,027.3,000.0,037.3,030.4,13.3,0000.0,0008.12,0003.46,0003.15
2023-10-08 07:19:00,SystemResetWarning,0835.0,5.00,000.00,028.8,027.3,000.0,037.3,030.4,13.4,0000.0,0007.66,0003.47,0003.15
2023-10-08 07:20:00,SystemResetWarning,0835.0,5.00,000.00,028.8,027.2,000.0,037.3,030.4,13.4,0000.0,0007.68,0003.48,0003.15
2023-10-08 07:21:00,SystemResetWarning,0835.0,5.00,000.00,028.8,027.2,000.0,037.3,030.4,13.4,0000.0,0007.79,0003.48,0003.15
2023-10-08 07:22:00,SystemResetWarning,0834.9,5.00,000.00,028.8,027.2,000.0,037.3,030.4,13.4,0000.0,0008.46,0003.48,0003.14
2023-10-08 07:23:00,SystemResetWarning,0835.0,5.00,000.00,028.8,027.2,000.0,037.3,030.4,13.4,0000.0,0008.49,0003.46,0003.13
2023-10-08 07:24:00,SystemResetWarning,0835.0,5.00,000.00,028.8,027.2,000.0,037.3,030.4,13.4,0000.0,0008.55,0003.48,0003.13
2023-10-08 07:25:00,SystemResetWarning,0835.0,5.01,000.00,028.8,027.2,000.0,037.3,030.4,13.3,0000.0,0008.22,0003.47,0003.14
2023-10-08 07:26:00,SystemResetWarning,0835.0,5.00,000.00,028.8,027.2,000.0,037.3,030.4,13.4,0000.0,0007.72,0003.46,0003.14
2023-10-08 07:27:00,SystemResetWarning,0835.0,5.00,000.00,028.8,027.2,000.0,037.3,030.4,13.5,0000.0,0007.70,0003.45,0003.14
2023-10-08 07:28:00,SystemResetWarning,0834.9,5.00,000.00,028.8,027.2,000.0,037.3,030.3,13.5,0000.0,0007.57,0003.46,0003.14
2023-10-08 07:29:00,SystemResetWarning,0835.0,5.00,000.00,028.8,027.2,000.0,037.3,030.3,13.4,0000.0,0007.47,0003.48,0003.15
2023-10-08 07:30:00,SystemResetWarning,0835.0,5.00,000.00,028.8,027.1,000.0,037.3,030.3,13.5,0000.0,0007.48,0003.49,0003.15
2023-10-08 07:31:00,SystemResetWarning,0835.0,5.00,000.00,028.8,027.1,000.0,037.3,030.3,13.5,0000.0,0007.57,0003.49,0003.16
2023-10-08 07:32:00,SystemResetWarning,0835.0,5.00,000.00,028.8,027.1,000.0,037.3,030.3,13.4,0000.0,0007.68,0003.51,0003.17
2023-10-08 07:33:00,SystemResetWarning,0835.0,4.99,000.00,028.8,027.1,000.0,037.3,030.3,13.5,0000.0,0006.94,0003.50,0003.17
2023-10-08 07:34:00,SystemResetWarning,0835.0,5.00,000.00,028.8,027.2,000.0,037.3,030.3,13.4,0000.0,0006.69,0003.50,0003.18
2023-10-08 07:35:00,SystemResetWarning,0835.0,5.00,000.00,028.8,027.2,000.0,037.3,030.3,13.5,0000.0,0006.58,0003.49,0003.19
2023-10-08 07:36:00,SystemResetWarning,0835.0,5.00,000.00,028.8,027.2,000.0,037.3,030.3,13.4,0000.0,0006.80,0003.49,0003.18
2023-10-08 07:37:00,SystemResetWarning,0835.0,5.00,000.00,028.8,027.2,000.0,037.3,030.3,13.5,0000.0,0007.21,0003.54,0003.19
2023-10-08 07:38:00,SystemResetWarning,0834.9,4.99,000.00,028.7,027.2,000.0,037.3,030.3,13.5,0000.0,0007.33,0003.57,0003.20
2023-10-08 07:39:00,SystemResetWarning,0835.0,5.00,000.00,028.7,027.2,000.0,037.2,030.3,13.4,0000.0,0007.34,0003.56,0003.20
2023-10-08 07:40:00,SystemResetWarning,0835.0,5.01,000.00,028.7,027.2,000.0,037.2,030.3,13.5,0000.0,0007.34,0003.57,0003.19
2023-10-08 07:41:00,SystemResetWarning,0835.0,5.00,000.00,028.7,027.2,000.0,037.2,030.3,13.4,0000.0,0007.25,0003.54,0003.19
2023-10-08 07:42:00,SystemResetWarning,0834.9,5.00,000.00,028.7,027.2,000.0,037.2,030.3,13.5,0000.0,0007.22,0003.52,0003.18
2023-10-08 07:43:00,SystemResetWarning,0834.9,5.00,000.00,028.7,027.1,000.0,037.2,030.3,13.4,0000.0,0006.74,0003.51,0003.17
2023-10-08 07:44:00,SystemResetWarning,0834.9,5.00,000.00,028.7,027.2,000.0,037.2,030.3,13.4,0000.0,0007.38,0003.51,0003.17
2023-10-08 07:45:00,SystemResetWarning,0834.9,5.00,000.00,028.7,027.2,000.0,037.2,030.3,13.4,0000.0,0007.40,0003.53,0003.17
2023-10-08 07:46:00,SystemResetWarning,0834.9,5.00,000.00,028.7,027.1,000.0,037.2,030.3,13.5,0000.0,0007.44,0003.52,0003.17
2023-10-08 07:47:00,SystemResetWarning,0834.9,5.00,000.00,028.7,027.1,000.0,037.2,030.3,13.4,0000.0,0007.45,0003.52,0003.17
2023-10-08 07:48:00,SystemResetWarning,0834.9,5.00,000.00,028.7,027.1,000.0,037.2,030.3,13.4,0000.0,0006.74,0003.45,0003.17
2023-10-08 07:49:00,SystemResetWarning,0834.9,5.00,000.00,028.7,027.1,000.0,037.2,030.3,13.3,0000.0,0006.44,0003.43,0003.17
2023-10-08 07:50:00,SystemResetWarning,0834.9,5.00,000.00,028.7,027.1,000.0,037.2,030.3,13.3,0000.0,0006.57,0003.44,0003.17
2023-10-08 07:51:00,SystemResetWarning,0834.9,5.00,000.00,028.7,027.1,000.0,037.2,030.3,13.4,0000.0,0007.09,0003.43,0003.17
2023-10-08 07:52:00,SystemResetWarning,0834.9,5.00,000.00,028.7,027.1,000.0,037.2,030.3,13.3,0000.0,0007.77,0003.45,0003.17
2023-10-08 07:53:00,SystemResetWarning,0834.9,5.00,000.00,028.7,027.1,000.0,037.2,030.3,13.4,0000.0,0007.92,0003.46,0003.17
2023-10-08 07:54:00,SystemResetWarning,0834.9,4.99,000.00,028.7,027.1,000.0,037.2,030.3,13.4,0000.0,0008.13,0003.46,0003.16
2023-10-08 07:55:00,SystemResetWarning,0834.9,4.99,000.00,028.7,027.1,000.0,037.2,030.3,13.3,0000.0,0007.67,0003.46,0003.15
2023-10-08 07:56:00,SystemResetWarning,0834.8,5.00,000.00,028.7,027.1,000.0,037.2,030.3,13.3,0000.0,0007.67,0003.47,0003.15
2023-10-08 07:57:00,SystemResetWarning,0834.9,5.01,000.00,028.7,027.1,000.0,037.2,030.3,13.4,0000.0,0007.60,0003.48,0003.15
2023-10-08 07:58:00,SystemResetWarning,0834.9,5.01,000.00,028.7,027.1,000.0,037.2,030.2,13.4,0000.0,0007.56,0003.49,0003.15
2023-10-08 07:59:00,SystemResetWarning,0835.0,5.01,000.00,028.7,027.1,000.0,037.2,030.2,13.4,0000.0,0007.52,0003.51,0003.14
